Powrót do katalogu

ACRIMSAT

AktywnyNaukaSSO
NORAD 26033·PAYLOAD·🇺🇸 United States

Wystrzelony Dec 21, 1999 z Vandenberg Space Force Base

Loading…

Następne Przeloty (najbliższe 24 godziny)

TLE

ŚwieżeSource: Space-Track

Epoka: Sep 14, 2026, 03:40 UTC

1 26033U 99070B   26257.15283703  .00000399  00000-0  81894-4 0  9995
2 26033  98.3587  43.6316 0026152 185.5722 174.5194 14.65993220425929

Śledź ACRIMSAT w czasie rzeczywistym z AllMySat

Download on the App Store